Time,TemperatureF,DewpointF,PressureIn,WindDirection,WindDirectionDegrees,WindSpeedMPH,WindSpeedGustMPH,Humidity,HourlyPrecipIn,Conditions,Clouds,dailyrainin,SoftwareType,DateUTC
2013-03-15 00:12:00,31.9,25.0,30.14,WNW,293,0.0,5.0,74,0.00,,,0.00,weatherlink.com 1.10,2013-03-15 04:12:00,
2013-03-15 00:27:00,31.9,25.0,30.13,WSW,251,1.0,5.0,76,0.00,,,0.00,weatherlink.com 1.10,2013-03-15 04:27:00,
2013-03-15 00:42:00,32.1,26.0,30.13,WNW,294,2.0,3.0,77,0.00,,,0.00,weatherlink.com 1.10,2013-03-15 04:42:00,
2013-03-15 00:57:00,32.3,26.0,30.13,West,266,2.0,6.0,79,0.00,,,0.00,weatherlink.com 1.10,2013-03-15 04:57:00,
2013-03-15 01:27:00,32.7,28.0,30.12,West,277,1.0,4.0,83,0.00,,,0.00,weatherlink.com 1.10,2013-03-15 05:27:00,
2013-03-15 01:42:00,32.9,29.0,30.11,SW,216,2.0,4.0,84,0.00,,,0.00,weatherlink.com 1.10,2013-03-15 05:42:00,
2013-03-15 01:57:00,33.2,30.0,30.10,SSW,197,1.0,5.0,86,0.00,,,0.00,weatherlink.com 1.10,2013-03-15 05:57:00,
2013-03-15 02:12:00,33.4,30.0,30.09,West,273,1.0,7.0,87,0.00,,,0.00,weatherlink.com 1.10,2013-03-15 06:12:00,
2013-03-15 02:27:00,33.6,30.0,30.09,WNW,302,4.0,7.0,87,0.00,,,0.00,weatherlink.com 1.10,2013-03-15 06:27:00,
2013-03-15 02:42:00,33.6,30.0,30.08,WNW,284,5.0,6.0,87,0.00,,,0.00,weatherlink.com 1.10,2013-03-15 06:42:00,
2013-03-15 02:57:00,33.7,30.0,30.08,WNW,284,2.0,6.0,87,0.00,,,0.00,weatherlink.com 1.10,2013-03-15 06:57:00,
2013-03-15 03:12:00,33.7,30.0,30.08,WNW,286,2.0,5.0,87,0.00,,,0.00,weatherlink.com 1.10,2013-03-15 07:12:00,
2013-03-15 03:27:00,33.7,30.0,30.07,WNW,282,2.0,5.0,87,0.00,,,0.00,weatherlink.com 1.10,2013-03-15 07:27:00,
2013-03-15 03:42:00,33.6,30.0,30.07,WSW,255,6.0,7.0,87,0.00,,,0.00,weatherlink.com 1.10,2013-03-15 07:42:00,
2013-03-15 03:58:00,33.7,31.0,30.06,South,189,1.0,7.0,88,0.00,,,0.00,weatherlink.com 1.10,2013-03-15 07:58:00,
2013-03-15 04:13:00,33.6,30.0,30.04,West,275,1.0,6.0,88,0.00,,,0.00,weatherlink.com 1.10,2013-03-15 08:13:00,
2013-03-15 04:28:00,33.6,30.0,30.04,WNW,290,2.0,8.0,88,0.00,,,0.00,weatherlink.com 1.10,2013-03-15 08:28:00,
2013-03-15 04:43:00,33.6,31.0,30.03,WNW,294,2.0,8.0,89,0.00,,,0.00,weatherlink.com 1.10,2013-03-15 08:43:00,
2013-03-15 04:58:00,33.6,31.0,30.02,West,265,2.0,7.0,89,0.00,,,0.00,weatherlink.com 1.10,2013-03-15 08:58:00,
2013-03-15 05:13:00,33.8,31.0,30.01,WSW,246,0.0,10.0,90,0.00,,,0.00,weatherlink.com 1.10,2013-03-15 09:13:00,
2013-03-15 05:28:00,33.8,31.0,30.00,WNW,287,2.0,7.0,90,0.00,,,0.00,weatherlink.com 1.10,2013-03-15 09:28:00,
2013-03-15 05:43:00,33.9,31.0,30.00,WSW,255,2.0,4.0,90,0.00,,,0.00,weatherlink.com 1.10,2013-03-15 09:43:00,
2013-03-15 05:58:00,33.9,31.0,29.99,WNW,286,3.0,6.0,90,0.00,,,0.00,weatherlink.com 1.10,2013-03-15 09:58:00,
2013-03-15 06:13:00,34.0,31.0,29.99,West,261,1.0,5.0,90,0.00,,,0.00,weatherlink.com 1.10,2013-03-15 10:13:00,
2013-03-15 06:28:00,34.1,32.0,29.99,WSW,249,1.0,5.0,90,0.00,,,0.00,weatherlink.com 1.10,2013-03-15 10:28:00,
2013-03-15 06:43:00,34.2,32.0,29.99,West,270,1.0,5.0,90,0.00,,,0.00,weatherlink.com 1.10,2013-03-15 10:43:00,
2013-03-15 06:58:00,34.3,32.0,29.98,West,265,1.0,4.0,90,0.00,,,0.00,weatherlink.com 1.10,2013-03-15 10:58:00,
2013-03-15 07:13:00,34.3,32.0,29.98,NW,304,3.0,6.0,90,0.00,,,0.00,weatherlink.com 1.10,2013-03-15 11:13:00,
2013-03-15 07:28:00,34.2,32.0,29.98,West,274,0.0,4.0,90,0.00,,,0.00,weatherlink.com 1.10,2013-03-15 11:28:00,
2013-03-15 07:43:00,34.2,32.0,29.98,West,273,0.0,4.0,90,0.00,,,0.00,weatherlink.com 1.10,2013-03-15 11:43:00,
2013-03-15 07:58:00,34.1,32.0,29.98,WNW,288,1.0,3.0,90,0.00,,,0.00,weatherlink.com 1.10,2013-03-15 11:58:00,
2013-03-15 08:13:00,34.0,31.0,29.98,WSW,244,0.0,4.0,90,0.00,,,0.00,weatherlink.com 1.10,2013-03-15 12:13:00,
2013-03-15 08:28:00,34.1,32.0,29.97,WNW,282,1.0,4.0,90,0.00,,,0.00,weatherlink.com 1.10,2013-03-15 12:28:00,
2013-03-15 08:43:00,34.2,32.0,29.97,West,265,1.0,5.0,90,0.00,,,0.00,weatherlink.com 1.10,2013-03-15 12:43:00,
2013-03-15 08:58:00,34.5,32.0,29.97,WSW,258,0.0,3.0,90,0.00,,,0.00,weatherlink.com 1.10,2013-03-15 12:58:00,
2013-03-15 09:13:00,34.8,32.0,29.97,WSW,257,2.0,4.0,90,0.00,,,0.00,weatherlink.com 1.10,2013-03-15 13:13:00,
2013-03-15 09:28:00,35.2,32.0,29.96,West,267,1.0,6.0,89,0.00,,,0.00,weatherlink.com 1.10,2013-03-15 13:28:00,
2013-03-15 09:43:00,35.5,32.0,29.96,WSW,248,1.0,5.0,88,0.00,,,0.00,weatherlink.com 1.10,2013-03-15 13:43:00,
2013-03-15 09:58:00,35.7,32.0,29.96,West,269,0.0,5.0,87,0.00,,,0.00,weatherlink.com 1.10,2013-03-15 13:58:00,
2013-03-15 10:13:00,35.8,32.0,29.97,WSW,244,3.0,7.0,86,0.00,,,0.00,weatherlink.com 1.10,2013-03-15 14:13:00,
2013-03-15 10:28:00,36.0,32.0,29.96,West,275,3.0,4.0,85,0.00,,,0.00,weatherlink.com 1.10,2013-03-15 14:28:00,
2013-03-15 10:43:00,36.3,32.0,29.96,WNW,286,1.0,5.0,85,0.00,,,0.00,weatherlink.com 1.10,2013-03-15 14:43:00,
2013-03-15 10:58:00,36.5,32.0,29.96,SW,236,1.0,5.0,84,0.00,,,0.00,weatherlink.com 1.10,2013-03-15 14:58:00,
2013-03-15 11:13:00,36.6,32.0,29.96,WSW,238,0.0,5.0,83,0.00,,,0.00,weatherlink.com 1.10,2013-03-15 15:13:00,
2013-03-15 11:28:00,37.1,32.0,29.96,West,273,1.0,5.0,83,0.00,,,0.00,weatherlink.com 1.10,2013-03-15 15:28:00,
2013-03-15 11:43:00,37.0,32.0,29.96,WSW,247,3.0,5.0,83,0.00,,,0.00,weatherlink.com 1.10,2013-03-15 15:43:00,
2013-03-15 11:58:00,37.1,32.0,29.96,WSW,254,4.0,5.0,83,0.00,,,0.00,weatherlink.com 1.10,2013-03-15 15:58:00,
2013-03-15 12:13:00,37.2,33.0,29.96,West,281,2.0,4.0,83,0.00,,,0.00,weatherlink.com 1.10,2013-03-15 16:13:00,
2013-03-15 12:28:00,37.2,33.0,29.95,SW,234,0.0,5.0,83,0.00,,,0.00,weatherlink.com 1.10,2013-03-15 16:28:00,
2013-03-15 12:43:00,37.4,33.0,29.95,West,268,0.0,2.0,83,0.00,,,0.00,weatherlink.com 1.10,2013-03-15 16:43:00,
2013-03-15 12:58:00,37.4,33.0,29.95,WNW,292,2.0,3.0,83,0.00,,,0.00,weatherlink.com 1.10,2013-03-15 16:58:00,
2013-03-15 13:13:00,37.8,33.0,29.95,WSW,255,1.0,1.0,82,0.00,,,0.00,weatherlink.com 1.10,2013-03-15 17:13:00,
2013-03-15 13:28:00,38.3,33.0,29.95,NW,316,1.0,3.0,81,0.00,,,0.00,weatherlink.com 1.10,2013-03-15 17:28:00,
2013-03-15 13:43:00,38.5,33.0,29.95,SSW,194,1.0,3.0,80,0.00,,,0.00,weatherlink.com 1.10,2013-03-15 17:43:00,
2013-03-15 13:58:00,38.2,33.0,29.95,West,273,0.0,2.0,80,0.00,,,0.00,weatherlink.com 1.10,2013-03-15 17:58:00,
2013-03-15 14:13:00,38.4,33.0,29.95,NW,315,0.0,2.0,81,0.00,,,0.00,weatherlink.com 1.10,2013-03-15 18:13:00,
2013-03-15 14:28:00,38.4,33.0,29.94,SW,215,1.0,2.0,81,0.00,,,0.00,weatherlink.com 1.10,2013-03-15 18:28:00,
2013-03-15 14:44:00,38.6,33.0,29.94,WSW,246,1.0,3.0,81,0.00,,,0.00,weatherlink.com 1.10,2013-03-15 18:44:00,
2013-03-15 14:59:00,38.9,33.0,29.93,SW,232,0.0,2.0,80,0.00,,,0.00,weatherlink.com 1.10,2013-03-15 18:59:00,
2013-03-15 15:14:00,39.0,33.0,29.93,West,279,1.0,2.0,80,0.00,,,0.00,weatherlink.com 1.10,2013-03-15 19:14:00,
2013-03-15 15:28:00,38.6,33.0,29.93,West,261,1.0,2.0,80,0.00,,,0.00,weatherlink.com 1.10,2013-03-15 19:28:00,
2013-03-15 15:44:00,38.6,33.0,29.93,SW,223,1.0,3.0,80,0.00,,,0.00,weatherlink.com 1.10,2013-03-15 19:44:00,
2013-03-15 15:58:00,38.3,34.0,29.92,SW,219,0.0,4.0,83,0.00,,,0.00,weatherlink.com 1.10,2013-03-15 19:58:00,
2013-03-15 16:14:00,38.3,33.0,29.93,WSW,240,1.0,3.0,82,0.00,,,0.00,weatherlink.com 1.10,2013-03-15 20:14:00,
2013-03-15 16:29:00,37.8,34.0,29.93,SW,217,0.0,3.0,86,0.00,,,0.00,weatherlink.com 1.10,2013-03-15 20:29:00,
2013-03-15 16:44:00,38.0,35.0,29.93,SW,217,0.0,0.0,89,0.00,,,0.00,weatherlink.com 1.10,2013-03-15 20:44:00,
2013-03-15 16:59:00,37.2,34.0,29.93,WSW,244,0.0,2.0,89,0.00,,,0.00,weatherlink.com 1.10,2013-03-15 20:59:00,
2013-03-15 17:14:00,37.3,35.0,29.93,WSW,244,0.0,2.0,91,0.00,,,0.00,weatherlink.com 1.10,2013-03-15 21:14:00,
2013-03-15 17:28:00,37.3,35.0,29.93,WSW,244,0.0,0.0,92,0.00,,,0.00,weatherlink.com 1.10,2013-03-15 21:28:00,
2013-03-15 17:44:00,36.9,35.0,29.93,SW,220,0.0,1.0,92,0.01,,,0.01,weatherlink.com 1.10,2013-03-15 21:44:00,
2013-03-15 18:14:00,36.4,35.0,29.93,SW,220,0.0,0.0,93,0.02,,,0.02,weatherlink.com 1.10,2013-03-15 22:14:00,
2013-03-15 18:29:00,36.1,35.0,29.92,SW,220,0.0,1.0,94,0.02,,,0.02,weatherlink.com 1.10,2013-03-15 22:29:00,
2013-03-15 18:44:00,35.7,34.0,29.92,SW,220,0.0,0.0,94,0.02,,,0.03,weatherlink.com 1.10,2013-03-15 22:44:00,
2013-03-15 18:59:00,35.5,34.0,29.92,SW,220,0.0,0.0,94,0.02,,,0.03,weatherlink.com 1.10,2013-03-15 22:59:00,
2013-03-15 19:14:00,35.3,34.0,29.91,SW,220,0.0,0.0,95,0.01,,,0.03,weatherlink.com 1.10,2013-03-15 23:14:00,
2013-03-15 19:29:00,35.0,34.0,29.91,SW,220,0.0,1.0,95,0.02,,,0.04,weatherlink.com 1.10,2013-03-15 23:29:00,
2013-03-15 19:44:00,34.9,34.0,29.92,SW,220,0.0,0.0,96,0.01,,,0.04,weatherlink.com 1.10,2013-03-15 23:44:00,
2013-03-15 19:58:00,34.7,34.0,29.92,SW,220,0.0,0.0,96,0.01,,,0.04,weatherlink.com 1.10,2013-03-15 23:58:00,
2013-03-15 20:14:00,34.4,33.0,29.92,SW,220,0.0,0.0,96,0.01,,,0.04,weatherlink.com 1.10,2013-03-16 00:14:00,
2013-03-15 20:29:00,34.2,34.0,29.91,SW,220,0.0,0.0,97,0.00,,,0.04,weatherlink.com 1.10,2013-03-16 00:29:00,
2013-03-15 20:44:00,34.2,34.0,29.91,SW,220,0.0,0.0,97,0.00,,,0.04,weatherlink.com 1.10,2013-03-16 00:44:00,
2013-03-15 20:58:00,34.1,33.0,29.92,SW,220,0.0,0.0,97,0.00,,,0.04,weatherlink.com 1.10,2013-03-16 00:58:00,
2013-03-15 21:14:00,33.9,33.0,29.91,NNE,30,0.0,2.0,96,0.00,,,0.04,weatherlink.com 1.10,2013-03-16 01:14:00,
2013-03-15 21:29:00,33.7,33.0,29.91,SE,127,0.0,2.0,96,0.00,,,0.04,weatherlink.com 1.10,2013-03-16 01:29:00,
2013-03-15 21:43:00,33.6,33.0,29.91,SE,127,0.0,1.0,96,0.00,,,0.04,weatherlink.com 1.10,2013-03-16 01:43:00,
2013-03-15 21:59:00,33.4,32.0,29.91,East,94,0.0,1.0,95,0.00,,,0.04,weatherlink.com 1.10,2013-03-16 01:59:00,
2013-03-15 22:14:00,33.2,32.0,29.91,East,98,0.0,1.0,95,0.00,,,0.04,weatherlink.com 1.10,2013-03-16 02:14:00,
2013-03-15 22:28:00,33.0,32.0,29.90,East,98,0.0,2.0,95,0.00,,,0.04,weatherlink.com 1.10,2013-03-16 02:28:00,
2013-03-15 22:44:00,32.8,32.0,29.90,East,99,0.0,0.0,95,0.00,,,0.04,weatherlink.com 1.10,2013-03-16 02:44:00,
2013-03-15 22:59:00,32.7,32.0,29.90,ENE,76,1.0,3.0,95,0.00,,,0.04,weatherlink.com 1.10,2013-03-16 02:59:00,
2013-03-15 23:13:00,32.6,31.0,29.91,SSE,148,2.0,4.0,93,0.00,,,0.04,weatherlink.com 1.10,2013-03-16 03:13:00,
2013-03-15 23:29:00,32.4,31.0,29.91,NNW,333,0.0,2.0,94,0.00,,,0.04,weatherlink.com 1.10,2013-03-16 03:29:00,
2013-03-15 23:44:00,31.9,30.0,29.91,SSE,158,1.0,3.0,94,0.00,,,0.04,weatherlink.com 1.10,2013-03-16 03:44:00,
2013-03-15 23:59:00,31.1,30.0,29.90,SE,131,1.0,3.0,94,0.00,,,0.04,weatherlink.com 1.10,2013-03-16 03:59:00,